Waukesha, WI

1:49 PM CST on November 21, 2017 (GMT -0600)
Waukesha County

Weather History for KUES - May, 2012

Change the Weather History Date:

Monday, May 28, 2012

  Actual Average Record
Temperature  
Mean Temperature 74 °F -  
Max Temperature 84 °F 71 °F 91 °F (1977)
Min Temperature 64 °F 50 °F 35 °F (1949)
Cooling Degree Days 9    
Growing Degree Days 24 (Base 50)    
Moisture  
Dew Point 60 °F    
Average Humidity 66    
Maximum Humidity 94    
Minimum Humidity 45    
Precipitation  
Precipitation 0.00 in - - ()
Sea Level Pressure  
Sea Level Pressure 29.77 in    
Wind  
Wind Speed 6 mph (SSW)    
Max Wind Speed 29 mph    
Max Gust Speed 44 mph    
Visibility 10 miles    
Events Rain    
Averages and records for this station are not official NWS values.
T = Trace of Precipitation, MM = Missing Value Source: NWS Daily Summary

Daily Weather History Graph

Daily Weather History Graph

Search for Another Location

Airport or City:

Trip Planner

Search our weather history database for the weather conditions in past years. The results will help you decide how hot, cold, wet, or windy it might be!

Date:

Astronomy

May. 28, 2012 Rise Set
Actual Time 5:18 AM CDT 8:22 PM CDT
Civil Twilight 4:44 AM CDT 8:56 PM CDT
Nautical Twilight 4:00 AM CDT 9:40 PM CDT
Astronomical Twilight 3:08 AM CDT 10:33 PM CDT
Moon 12:36 PM CDT (5/28) 12:52 AM CDT (5/28)
Length of Visible Light 16h 12m
Length of Day
15h 04m
Waxing Crescent, 49% of the Moon is Illuminated
May 28
Waxing Crescent
May 28
First Quarter
Jun 4
Full
Jun 11
Last Quarter
Jun 19
New

Hourly Weather History & Observations

Time (CDT) Temp. Heat Index Dew Point Humidity Pressure Visibility Wind Dir Wind Speed Gust Speed Precip Events Conditions
12:15 AM 71.6 °F - 55.4 °F 57% 29.82 in 10.0 mi Calm Calm - N/A   Clear
12:35 AM 71.6 °F - 55.4 °F 57% 29.82 in 10.0 mi South 3.5 mph - N/A   Clear
12:55 AM 69.8 °F - 55.4 °F 60% 29.82 in 10.0 mi South 3.5 mph - N/A   Clear
1:15 AM 69.8 °F - 57.2 °F 64% 29.83 in 10.0 mi South 3.5 mph - N/A   Clear
1:35 AM 69.8 °F - 55.4 °F 60% 29.83 in 10.0 mi South 3.5 mph - N/A   Clear
1:55 AM 69.8 °F - 55.4 °F 60% 29.83 in 10.0 mi South 4.6 mph - N/A   Clear
2:15 AM 69.8 °F - 55.4 °F 60% 29.82 in 10.0 mi SSW 3.5 mph - N/A   Clear
2:35 AM 69.8 °F - 55.4 °F 60% 29.82 in 10.0 mi South 3.5 mph - N/A   Clear
2:55 AM 69.8 °F - 55.4 °F 60% 29.81 in 10.0 mi South 3.5 mph - N/A   Clear
3:15 AM 69.8 °F - 55.4 °F 60% 29.81 in 10.0 mi South 4.6 mph - N/A   Clear
3:35 AM 69.8 °F - 57.2 °F 64% 29.81 in 10.0 mi South 5.8 mph - N/A   Clear
3:55 AM 69.8 °F - 57.2 °F 64% 29.80 in 10.0 mi SSW 3.5 mph - N/A   Clear
4:15 AM 69.8 °F - 59.0 °F 68% 29.80 in 10.0 mi South 4.6 mph - N/A   Clear
4:35 AM 69.8 °F - 59.0 °F 68% 29.80 in 10.0 mi South 5.8 mph - N/A   Clear
4:55 AM 71.6 °F - 59.0 °F 64% 29.80 in 10.0 mi SSW 8.1 mph - N/A   Clear
5:15 AM 71.6 °F - 59.0 °F 64% 29.80 in 10.0 mi SSW 8.1 mph - N/A   Clear
5:35 AM 71.6 °F - 59.0 °F 64% 29.79 in 10.0 mi South 5.8 mph - N/A   Clear
5:45 AM 71.6 °F - 60.8 °F 69% 29.79 in 10.0 mi SSW 9.2 mph - N/A   Clear
6:45 AM 73.4 °F - 60.8 °F 65% 29.79 in 10.0 mi SSW 9.2 mph - N/A   Clear
7:45 AM 75.2 °F - 62.6 °F 65% 29.80 in 10.0 mi SSW 9.2 mph - N/A   Clear
8:45 AM 78.8 °F - 62.6 °F 57% 29.80 in 10.0 mi SSW 9.2 mph 20.7 mph N/A   Clear
9:45 AM 80.6 °F 81.8 °F 62.6 °F 54% 29.77 in 10.0 mi SSW 9.2 mph 18.4 mph N/A   Clear
10:45 AM 80.6 °F 81.8 °F 62.6 °F 54% 29.76 in 10.0 mi South 13.8 mph - N/A   Clear
11:45 AM 82.4 °F 82.9 °F 60.8 °F 48% 29.74 in 10.0 mi South 16.1 mph - N/A   Clear
12:45 PM 82.4 °F 82.5 °F 59.0 °F 45% 29.81 in 10.0 mi SSW 11.5 mph 23.0 mph N/A   Clear
1:45 PM 82.4 °F 82.9 °F 60.8 °F 48% 29.72 in 10.0 mi SSW 15.0 mph 26.5 mph N/A   Clear
2:45 PM 84.2 °F 84.4 °F 60.8 °F 45% 29.70 in 10.0 mi SSW 13.8 mph 25.3 mph N/A   Clear
3:45 PM 80.6 °F 81.8 °F 62.6 °F 54% 29.70 in 10.0 mi SW 11.5 mph 28.8 mph N/A   Scattered Clouds
4:45 PM 80.6 °F 81.8 °F 62.6 °F 54% 29.68 in 10.0 mi SW 11.5 mph 23.0 mph N/A   Mostly Cloudy
6:45 PM 80.6 °F 81.8 °F 62.6 °F 54% 29.69 in 10.0 mi West 28.8 mph 43.7 mph N/A   Overcast
7:20 PM 66.2 °F - 62.6 °F 88% 29.75 in 3.0 mi WSW 17.3 mph 40.3 mph N/A Rain Rain
7:45 PM 66.2 °F - 62.6 °F 88% 29.70 in 10.0 mi West 17.3 mph - N/A   Mostly Cloudy
9:15 PM 66.2 °F - 60.8 °F 83% 29.72 in 10.0 mi SSW 4.6 mph - N/A   Scattered Clouds
9:35 PM 66.2 °F - 62.6 °F 88% 29.73 in 10.0 mi Calm Calm - N/A   Mostly Cloudy
9:55 PM 64.4 °F - 62.6 °F 94% 29.73 in 10.0 mi West 3.5 mph - N/A   Scattered Clouds
10:15 PM 66.2 °F - 62.6 °F 88% 29.73 in 10.0 mi WSW 3.5 mph - N/A   Clear
10:35 PM 66.2 °F - 60.8 °F 83% 29.73 in 10.0 mi WSW 3.5 mph - N/A   Clear
10:55 PM 64.4 °F - 60.8 °F 88% 29.73 in 10.0 mi West 4.6 mph - N/A   Clear
11:15 PM 66.2 °F - 60.8 °F 83% 29.73 in 10.0 mi WSW 4.6 mph - N/A   Clear
11:35 PM 66.2 °F - 60.8 °F 83% 29.74 in 10.0 mi SW 8.1 mph - N/A   Clear
11:55 PM 66.2 °F - 60.8 °F 83% 29.74 in 10.0 mi SW 9.2 mph - N/A   Clear